When you browse on this site, cookies collect data to enhance your experience and personalize the content and advertising you see.
Visit our Privacy Policy to learn more. By continuing to use the site, you agree to this use of cookies and data.
  • In Deutschland
  • Länderverzeichnis
  • Für 7 Tage
  • Wassertemperatur
  • Satellitenkarten
  • Wetterkarte
  • Widgets
  • user-avatar
    Anmelden

    Stündliche Wetter Copiapo

    Heute, 18 Dezember, Dienstag

    Zeit Temperatur Niederschläge Wind Luftdruck Luftfeuchtigkeit
    00:00 +24°C° 0 mm 1 m/S 725 mmHg 55%
    01:00 +24°C° 0 mm 1 m/S 724 mmHg 58%
    02:00 +24°C° 0 mm 1 m/S 725 mmHg 59%
    03:00 +23°C° 0 mm 1 m/S 725 mmHg 60%
    04:00 +21°C° 0 mm 0 m/S 725 mmHg 62%
    05:00 +24°C° 0 mm 1 m/S 725 mmHg 57%
    06:00 +25°C° 0 mm 1 m/S 725 mmHg 52%
    07:00 +26°C° 0 mm 2 m/S 726 mmHg 48%
    08:00 +28°C° 0 mm 2 m/S 726 mmHg 42%
    09:00 +29°C° 0 mm 3 m/S 726 mmHg 37%
    10:00 +30°C° 0 mm 3 m/S 726 mmHg 32%
    11:00 +31°C° 0 mm 3 m/S 725 mmHg 30%
    12:00 +33°C° 0 mm 4 m/S 725 mmHg 28%
    13:00 +34°C° 0 mm 4 m/S 725 mmHg 26%
    14:00 +33°C° 0 mm 4 m/S 725 mmHg 26%
    15:00 +33°C° 0 mm 4 m/S 725 mmHg 26%
    16:00 +32°C° 0 mm 4 m/S 725 mmHg 27%
    17:00 +30°C° 0 mm 3 m/S 725 mmHg 31%
    18:00 +28°C° 0 mm 3 m/S 726 mmHg 35%
    19:00 +27°C° 0 mm 2 m/S 726 mmHg 40%
    20:00 +26°C° 0 mm 2 m/S 726 mmHg 42%
    21:00 +25°C° 0 mm 1 m/S 726 mmHg 45%
    22:00 +25°C° 0 mm 1 m/S 726 mmHg 48%
    23:00 +25°C° 0 mm 1 m/S 726 mmHg 48%

    Morgen, 19 Dezember, Mittwoch

    Zeit Temperatur Niederschläge Wind Luftdruck Luftfeuchtigkeit
    00:00 +24°C° 0 mm 1 m/S 726 mmHg 49%
    01:00 +22°C° 0 mm 0 m/S 726 mmHg 50%
    02:00 +21°C° 0 mm 0 m/S 726 mmHg 50%
    03:00 +21°C° 0 mm 0 m/S 726 mmHg 51%
    04:00 +20°C° 0 mm 0 m/S 726 mmHg 52%
    05:00 +24°C° 0 mm 1 m/S 726 mmHg 47%
    06:00 +25°C° 0 mm 1 m/S 726 mmHg 42%
    07:00 +27°C° 0 mm 1 m/S 727 mmHg 37%
    08:00 +28°C° 0 mm 2 m/S 727 mmHg 32%
    09:00 +29°C° 0 mm 3 m/S 727 mmHg 27%
    10:00 +31°C° 0 mm 3 m/S 727 mmHg 22%
    11:00 +32°C° 0 mm 4 m/S 727 mmHg 21%
    12:00 +33°C° 0 mm 4 m/S 726 mmHg 20%
    13:00 +34°C° 0 mm 4 m/S 726 mmHg 19%
    14:00 +33°C° 0 mm 4 m/S 726 mmHg 20%
    15:00 +33°C° 0 mm 4 m/S 725 mmHg 20%
    16:00 +32°C° 0 mm 4 m/S 725 mmHg 21%
    17:00 +30°C° 0 mm 3 m/S 725 mmHg 25%
    18:00 +28°C° 0 mm 3 m/S 725 mmHg 29%
    19:00 +27°C° 0 mm 2 m/S 726 mmHg 33%
    20:00 +26°C° 0 mm 2 m/S 726 mmHg 35%
    21:00 +26°C° 0 mm 1 m/S 726 mmHg 37%
    22:00 +25°C° 0 mm 1 m/S 726 mmHg 40%
    23:00 +25°C° 0 mm 1 m/S 726 mmHg 41%

    übermorgen, 20 Dezember, Donnerstag

    Zeit Temperatur Niederschläge Wind Luftdruck Luftfeuchtigkeit
    00:00 +24°C° 0 mm 1 m/S 725 mmHg 42%
    01:00 +22°C° 0 mm 0 m/S 725 mmHg 43%
    02:00 +21°C° 0 mm 0 m/S 725 mmHg 44%
    03:00 +21°C° 0 mm 0 m/S 725 mmHg 45%
    04:00 +20°C° 0 mm 0 m/S 724 mmHg 46%
    05:00 +24°C° 0 mm 1 m/S 725 mmHg 41%
    06:00 +25°C° 0 mm 1 m/S 725 mmHg 36%
    07:00 +27°C° 0 mm 1 m/S 725 mmHg 32%
    08:00 +28°C° 0 mm 2 m/S 725 mmHg 28%
    09:00 +30°C° 0 mm 2 m/S 725 mmHg 25%
    10:00 +31°C° 0 mm 3 m/S 725 mmHg 21%
    11:00 +33°C° 0 mm 4 m/S 725 mmHg 21%
    12:00 +33°C° 0 mm 4 m/S 724 mmHg 20%
    13:00 +34°C° 0 mm 4 m/S 724 mmHg 19%
    14:00 +34°C° 0 mm 4 m/S 724 mmHg 20%
    15:00 +33°C° 0 mm 4 m/S 723 mmHg 21%
    16:00 +32°C° 0 mm 4 m/S 723 mmHg 22%
    17:00 +30°C° 0 mm 3 m/S 723 mmHg 27%
    18:00 +28°C° 0 mm 3 m/S 723 mmHg 31%
    19:00 +27°C° 0 mm 2 m/S 724 mmHg 36%
    20:00 +26°C° 0 mm 2 m/S 724 mmHg 38%
    21:00 +26°C° 0 mm 1 m/S 724 mmHg 41%
    22:00 +25°C° 0 mm 1 m/S 724 mmHg 44%
    23:00 +25°C° 0 mm 1 m/S 724 mmHg 45%

    21 Dezember, Freitag

    Zeit Temperatur Niederschläge Wind Luftdruck Luftfeuchtigkeit
    00:00 +22°C° 0 mm 0 m/S 723 mmHg 46%
    01:00 +22°C° 0 mm 0 m/S 723 mmHg 47%
    02:00 +21°C° 0 mm 0 m/S 723 mmHg 48%
    03:00 +21°C° 0 mm 0 m/S 723 mmHg 49%
    04:00 +20°C° 0 mm 0 m/S 723 mmHg 50%
    05:00 +24°C° 0 mm 1 m/S 723 mmHg 46%
    06:00 +25°C° 0 mm 1 m/S 724 mmHg 42%
    07:00 +26°C° 0 mm 1 m/S 724 mmHg 38%
    08:00 +28°C° 0 mm 2 m/S 724 mmHg 33%
    09:00 +29°C° 0 mm 2 m/S 724 mmHg 29%
    10:00 +31°C° 0 mm 3 m/S 724 mmHg 25%
    11:00 +32°C° 0 mm 4 m/S 724 mmHg 25%
    12:00 +33°C° 0 mm 4 m/S 724 mmHg 24%
    13:00 +33°C° 0 mm 4 m/S 723 mmHg 24%
    14:00 +33°C° 0 mm 4 m/S 723 mmHg 25%
    15:00 +32°C° 0 mm 4 m/S 723 mmHg 26%
    16:00 +30°C° 0 mm 4 m/S 723 mmHg 27%
    17:00 +29°C° 0 mm 3 m/S 724 mmHg 32%
    18:00 +28°C° 0 mm 2 m/S 724 mmHg 36%
    19:00 +26°C° 0 mm 2 m/S 724 mmHg 41%
    20:00 +26°C° 0 mm 1 m/S 725 mmHg 43%
    21:00 +25°C° 0 mm 1 m/S 725 mmHg 46%
    22:00 +25°C° 0 mm 1 m/S 725 mmHg 48%
    23:00 +24°C° 0 mm 1 m/S 725 mmHg 50%

    22 Dezember, Samstag

    Zeit Temperatur Niederschläge Wind Luftdruck Luftfeuchtigkeit
    00:00 +22°C° 0 mm 0 m/S 725 mmHg 51%
    01:00 +21°C° 0 mm 0 m/S 725 mmHg 52%
    02:00 +21°C° 0 mm 0 m/S 725 mmHg 54%
    03:00 +20°C° 0 mm 0 m/S 725 mmHg 56%
    04:00 +20°C° 0 mm 0 m/S 725 mmHg 58%
    05:00 +23°C° 0 mm 1 m/S 725 mmHg 54%
    06:00 +24°C° 0 mm 1 m/S 726 mmHg 50%
    07:00 +25°C° 0 mm 1 m/S 726 mmHg 46%
    08:00 +27°C° 0 mm 2 m/S 726 mmHg 41%
    09:00 +28°C° 0 mm 2 m/S 726 mmHg 36%
    10:00 +30°C° 0 mm 3 m/S 725 mmHg 31%
    11:00 +30°C° 0 mm 4 m/S 725 mmHg 30%
    12:00 +32°C° 0 mm 4 m/S 725 mmHg 29%
    13:00 +33°C° 0 mm 5 m/S 725 mmHg 28%
    14:00 +32°C° 0 mm 4 m/S 725 mmHg 28%
    15:00 +32°C° 0 mm 4 m/S 725 mmHg 29%
    16:00 +30°C° 0 mm 4 m/S 724 mmHg 30%
    17:00 +29°C° 0 mm 3 m/S 725 mmHg 33%
    18:00 +28°C° 0 mm 2 m/S 725 mmHg 36%
    19:00 +27°C° 0 mm 2 m/S 725 mmHg 39%
    20:00 +26°C° 0 mm 2 m/S 726 mmHg 41%
    21:00 +26°C° 0 mm 1 m/S 726 mmHg 43%
    22:00 +25°C° 0 mm 1 m/S 726 mmHg 45%
    23:00 +25°C° 0 mm 1 m/S 726 mmHg 47%

    23 Dezember, Sonntag

    Zeit Temperatur Niederschläge Wind Luftdruck Luftfeuchtigkeit
    00:00 +22°C° 0 mm 0 m/S 725 mmHg 49%
    01:00 +22°C° 0 mm 0 m/S 725 mmHg 51%
    02:00 +21°C° 0 mm 0 m/S 725 mmHg 53%
    03:00 +21°C° 0 mm 0 m/S 725 mmHg 54%
    04:00 +20°C° 0 mm 0 m/S 725 mmHg 55%
    05:00 +22°C° 0 mm 0 m/S 725 mmHg 51%
    06:00 +25°C° 0 mm 1 m/S 726 mmHg 46%
    07:00 +26°C° 0 mm 1 m/S 726 mmHg 42%
    08:00 +28°C° 0 mm 2 m/S 726 mmHg 37%
    09:00 +29°C° 0 mm 2 m/S 725 mmHg 32%
    10:00 +31°C° 0 mm 3 m/S 725 mmHg 27%
    11:00 +33°C° 0 mm 4 m/S 725 mmHg 25%
    12:00 +33°C° 0 mm 4 m/S 725 mmHg 24%
    13:00 +34°C° 0 mm 5 m/S 724 mmHg 22%
    14:00 +34°C° 0 mm 4 m/S 724 mmHg 23%
    15:00 +33°C° 0 mm 4 m/S 724 mmHg 24%
    16:00 +32°C° 0 mm 4 m/S 723 mmHg 25%
    17:00 +30°C° 0 mm 3 m/S 724 mmHg 28%
    18:00 +29°C° 0 mm 3 m/S 724 mmHg 31%
    19:00 +27°C° 0 mm 2 m/S 724 mmHg 35%
    20:00 +27°C° 0 mm 2 m/S 724 mmHg 36%
    21:00 +26°C° 0 mm 1 m/S 724 mmHg 38%
    22:00 +26°C° 0 mm 1 m/S 724 mmHg 40%
    23:00 +25°C° 0 mm 1 m/S 724 mmHg 42%
    Mehr zeigen